Regional Weather Roundup
Issued by NWS

Home | Current Version | Previous Version | Text Only | Print | Product List | Glossary On
Versions: 1 2 3 4 5 6 7 8 9 10 11 12 13 14 15 16 17 18 19 20 21 22 23 24 25 26 27 28 29 30 31 32 33 34 35 36 37 38 39 40 41 42 43 44 45 46 47 48 49 50
000
ASHW40 PHFO 021310
RWRHI

WEATHER ROUNDUP FOR HAWAII
NATIONAL WEATHER SERVICE HONOLULU HI
300 AM HST MON MAR 02 2015

THIS IS AN AUTOMATED REPORT THAT HAS NOT BEEN QUALITY CONTROLLED.

NOTE..."FAIR" INDICATES FEW OR NO CLOUDS BELOW 12,000 FEET WITH NO
SIGNIFICANT WEATHER AND/OR OBSTRUCTIONS TO VISIBILITY.

* - THESE SITES REPORT LIMITED FIELDS

HIZ001>004-021400-
KAUAI-NIIHAU-

CITY           SKY/WX    TMP DP  RH WIND       PRES   REMARKS
LIHUE APT      MOCLDY    73  64  73 NE16      30.03F
PORT ALLEN*      N/A     68 N/A N/A NE5         N/A
POIPU*         NOT AVBL
PRINCEVILLE*     N/A     72 N/A N/A MISG        N/A
KOKOLE POINT*  NOT AVBL
MOLOAA DAIRY*  NOT AVBL
WAIMEA HTS*    NOT AVBL
PUU OPAE*      NOT AVBL
PUU LUA*       NOT AVBL
MAKAHA RIDGE*  NOT AVBL
$$

HIZ005>011-021400-
OAHU-

CITY           SKY/WX    TMP DP  RH WIND       PRES   REMARKS
HONOLULU       PTCLDY    73  64  73 VRB5      29.96F
KALAELOA       CLEAR     71  63  75 N9G21     29.97F
KANEOHE MCB    MOCLDY    73  66  78 N17       29.97F
WHEELER FIELD  FAIR      67  64  89 NW12      29.98F
BELLOWS*       NOT AVBL
KAHUKU*        NOT AVBL
WHEELER*       NOT AVBL
WAIANAE HARBOR NOT AVBL
DILLINGHAM*      N/A     70  64  83 MISG        N/A
KAHUKU TRN*      N/A     70  64  83 NE7G14      N/A
KAWAILOA*        N/A     66  63  88 NE10G17     N/A
KII*             N/A     73  66  78 N12G18      N/A
MAKUA RANGE*     N/A     72  66  83 E16G26      N/A
OAHU FOREST NW NOT AVBL
SCHOFIELD BRK*   N/A     66  63  88 MISG        N/A
SCHOFIELD S*   NOT AVBL
WAIANAE VLY*   NOT AVBL
KUAOKALA*      NOT AVBL
HONOULIUULI*   NOT AVBL
MOKUOLOE IS*   NOT AVBL
PALEHUA*       NOT AVBL
WAIAWA PHB*    NOT AVBL
$$

HIZ012>013-021400-
MOLOKAI-

CITY           SKY/WX    TMP DP  RH WIND       PRES   REMARKS
MOLOKAI AIRPT  CLOUDY    68  68 100 N10G21    29.98F
KALAUPAPA      NOT AVBL
MAKAPULAPAI*   NOT AVBL
MOLOKAI 1*     NOT AVBL
PUU ALII*      NOT AVBL
$$

HIZ016-021400-
KAHOOLAWE-

CITY           SKY/WX    TMP DP  RH WIND       PRES   REMARKS
KAHOOLAWE*     NOT AVBL
HAKIOAWA*      NOT AVBL
HONOKANAIA*      N/A     74  67  80 N12G28    29.97F
KANELOA*         N/A     72  66  83 MISG      29.18F
KEALIALALO*    NOT AVBL
LUA MAKIKA*    NOT AVBL
$$

HIZ014>015-021400-
LANAI-

CITY           SKY/WX    TMP DP  RH WIND       PRES   REMARKS
LANAI CITY     FAIR      68  65  90 NE15      30.00F
LANAI 1*       NOT AVBL
$$

HIZ017>028-021400-
MAUI-

CITY           SKY/WX    TMP DP  RH WIND       PRES   REMARKS
KAHULUI        CLEAR     72  68  87 NE8       29.98F
KAPALUA-W MAUI NOT AVBL
HANA AIRPORT   LGT RAIN  66  66 100 CALM      30.01S
HANA*          NOT AVBL
HALEAKALA SUMM   N/A     37  28  70 S5G17       N/A
MAALAEA BAY*   NOT AVBL
HALEAKALA*     NOT AVBL
KAUPO GAP*     NOT AVBL
KULA 1*          N/A     50  38  62 E3G10       N/A
$$

HIZ023>026-021400-
BIG ISLAND OF HAWAII COAST AND LOWER SLOPES-

CITY           SKY/WX    TMP DP  RH WIND       PRES   REMARKS
KAILUA KONA    CLEAR     75  63  66 CALM      29.90F
HILO           RAIN      69  68  96 VRB3      29.98F
HONOKAA*       NOT AVBL
KAWAIHAE MWT*  NOT AVBL
KAWAIHAE*        N/A     75 N/A N/A NE3         N/A
SOUTH POINT*   NOT AVBL
UPOLU AIRPORT* NOT AVBL
KAMUELA*       SUNNY     63  61  94 NE15      30.03F
HAKALAU*         N/A     48  46  93 W2          N/A
KALOKO-HONOKO* NOT AVBL
PALI 2*        NOT AVBL
KEALAKOMO*       N/A     75  63  64 VRB17G32    N/A
KAUPULEHU*     NOT AVBL
KAPAPALA*        N/A     59  55  88 CALM        N/A
LOWER KAHUKU*  NOT AVBL
PUHE CS*       NOT AVBL
PUHO CS*       NOT AVBL
PTA KEAMUKU*     N/A     57  48  72 CALM        N/A
WAIKOLOA*      NOT AVBL
$$

HIZ027>028-021400-
BIG ISLAND OF HAWAII INTERIOR AND SUMMMITS-

CITY           SKY/WX    TMP DP  RH WIND       PRES   REMARKS
BRADSHAW FIELD CLOUDY    49  47  92 SE8       30.24F
MK VISITOR CEN NOT AVBL
MAUNA KEA*       N/A     28   5  37 NW13        N/A  WCI  18
MAUNA LOA*       N/A    N/A N/A N/A MISG        N/A
MAUNA LOA 1*   NOT AVBL
PTA KIPUKA*      N/A     48  43  81 E3          N/A
PTA RANGE 17*    N/A     50  46  87 E8          N/A
PTA WEST*        N/A     57  48  72 SE10G22     N/A
NENE CABIN*    NOT AVBL
AHUMOA*        NOT AVBL
PTA PORTABLE*  NOT AVBL
PUU MALI*      NOT AVBL
$$

HIC003-021400-
NORTHWEST ISLANDS-

CITY           SKY/WX    TMP DP  RH WIND       PRES   REMARKS
MIDWAY ISLAND  CLOUDY    59  46  63 E9        30.36F HAZE
MIDWAY NOS*    NOT AVBL
FRENCH FRIGATE NOT AVBL
$$

PHZ110>124-180-021400-
BUOY REPORTS

STATION/POSITION TIME  TEMP    WIND        PRES    WAVE   SWELL
                       AIR SEA DIR/SP/G            HT/PER HT/DIR
                 (UTC) (F)     (DEG/KT/KT) (MB)    (FT/S) (FT/D)
BUOY 51001       NOT AVBL
BUOY 51101       1300   68 71   20/ 19/ 23 1019.7F  11/14   8/320
BUOY 51100       1300   72 75  110/  8/ 14 1015.9F
BUOY 51003       1200   76 78   50/ 16/ 17 1014.9F   8/ 7   5
BUOY 51004       1227   77 78   70/ 14/ 17 1013.1S   7/ 9   5/100
BARBERS PT BUOY  NOT AVBL
WAIMEA BAY BUOY  1300      78                N/A     8/14   5/320
KAILUA BAY BUOY  1300      77                N/A     7/ 7   3/340
LANAI BUOY       1300      76                N/A     3/15   2/300
BARBERS PT 2     1300      77                N/A     4/15   3/300
PAUWELA MAUI     1300      75                N/A     7/15
HILO             1300      77                N/A     6/ 8   2/ 90
KANEOHE BAY BUOY 1300      77                N/A     7/15   3/340
HANALEI KAUAI    NOT AVBL
KAHULUI HARBOR   1300           10/ 14/ 16   N/A
HONOLULU HARBOR  1300          320/  6/ 10   N/A
KILO NALU        NOT AVBL
HILO HARBOR      NOT AVBL
MOKUOLOE         1300      76              1015.7F
NAWILIWILI       1300   72 78   30/  9/ 15 1016.5F
WHOTS BUOY       NOT AVBL
BUOY 51028       NOT AVBL
$$

......................KEY........................................
  SKY/WX - SKY CONDITIONS/PRESENT WEATHER
  TMP    - TEMPERATURE IN FAHRENHEIT
  DWPT   - DEWPOINT IN FAHRENHEIT
  RH     - RELATIVE HUMIDITY IN PERCENT
  WIND   - DIRECTION AND SPEED /MPH FOR ISLANDS...KTS FOR BUOYS/
  PRES   - MEAN SEA LEVEL PRESSURE IN INCHES OF HG
  VSB    - VISIBILITY IN MILES
  HX     - HEAT INDEX
  WCI    - WIND CHILL INDEX
  VRB    - VARIABLE WIND DIRECTION
  N/A    - NOT AVAILABLE



USA.gov is the U.S. government's official web portal to all federal, state and local government web resources and services.